Deer Lodge (38S)
Deer Lodge, MT
Field Elevation: 4692
Lat: 49°23.27N  Long: 112°45.89W
CTAF/Unicom Freq: 120.0250
   
     For Weather-by-Phone, call 406-846-1177
Weather Advisories
9/23/2014 10:20 Z
Altimeter 30.12" Hg
Wind 290° @ 0 KT
Gusts --
Visibility 10 SM
Temperature 8° C (46° F)
Dewpoint 5° C (41° F)
Relative Humidity 84%
Density Altitude --
Condensation Altitude 6,100 feet
  Wind and Runways
Indicated Runway = 31
History
 
 
More Info
All DigiWx sites map
Weather Radar
NOAA Forecast
 
Airport IQ 5010
(S59) Libby
(6S5) Ravalli County
 
about DigiWx
 
FAA Disclaimer: The data displayed is for advisory purposes only and is not to be used for flight planning or operations. For official data, please call 406-846-1177 to hear the current automated AWOS voice message.
  METAR 38S 231020Z AUTO 29000KT 10SM 08/05 A3012